Regional Weather Roundup
Issued by NWS Wakefield, VA

Home | Current Version | Previous Version | Graphics & Text | Print | Product List | Glossary On
Versions: 1 2 3 4 5 6 7 8 9 10 11 12 13 14 15 16 17 18 19 20 21 22 23 24 25 26 27
000
ASUS41 KAKQ 110015
RWRAKQ

REGIONAL WEATHER ROUNDUP
NATIONAL WEATHER SERVICE WAKEFIELD VA
700 PM EST SUN DEC 10 2017

Note: "fair" indicates few or no clouds below 12,000 feet with no
significant weather and/or obstructions to visibility. * = Denotes
station may not report precipitation (e.g., rain,snow,etc.),
thunder or fog.

VAZ042-051-052>054-056-110100-
NORTHERN VIRGINIA

CITY           SKY/WX    TMP DP  RH WIND       PRES   REMARKS
WASH NATIONAL  MOCLDY    38  24  57 S6        30.07S
DULLES         PTCLDY    30  25  81 SE5       30.04S
FORT BELVOIR   PTCLDY    30  24  77 CALM      30.06S
QUANTICO       MOCLDY    39  27  62 SW8       30.08S
FREDERICKSBRG* CLEAR     32  28  84 S6        30.07S
STAFFORD*      CLEAR     32  24  72 CALM      30.11R
WARRENTON      CLOUDY    36  20  50 S5        30.04S
CULPEPER*      CLOUDY    36  22  56 SW5       30.06S
MANASSAS*      PTCLDY    31  27  85 S3        30.06S
LEESBURG*      CLOUDY    36  27  69 CALM      30.04F
WINCHESTER     MOCLDY    28  19  69 CALM      30.02R
FRONT ROYAL*   CLOUDY    34  21  60 CALM      30.01S
LURAY*         PTCLDY    32  23  69 SW3       30.02R
$$

VAZ048-049-060>072-079>083-110100-
CENTRAL AND SOUTH CENTRAL VIRGINIA

CITY           SKY/WX    TMP DP  RH WIND       PRES   REMARKS
RICHMOND       CLEAR     32  27  81 S8        30.11R
CHESTERFIELD*  NOT AVBL
PETERSBURG*    CLEAR     32  27  80 CALM      30.12F
HANOVER        CLEAR     34  25  69 S7        30.11R
TAPPAHANNOCK*    N/A    N/A N/A N/A MISG        N/A
QUINTON*       FAIR      33  28  82 SW5       30.12R
CHARLOTTSVILLE CLOUDY    38  20  48 SW3       30.05R
GORDONSVILLE*  CLOUDY    33  25  73 SW5       30.05S
ORANGE*        CLOUDY    32  25  74 CALM      30.06R
LOUISA*        MOCLDY    33  21  60 S5        30.11R
BUMPASS*       FAIR      32  25  74 SW7       30.08R
FARMVILLE*     CLEAR     33  28  82 S3        30.08S
CREWE*         FAIR      32  29  92 CALM      30.10S
FORT PICKETT*  NOT AVBL
CHASE CITY*    FAIR      30  30 100 CALM      30.11S
CLARKSVILLE*   FAIR      30  30 100 CALM      30.12S
SOUTH HILL*    CLEAR     30  28  90 CALM      30.18S
LAWRENCEVILLE* FAIR      30  27  86 CALM      30.13S
EMPORIA*       CLEAR     32  28  86 CALM      30.16R
$$

VAZ088>098-110100-
SOUTHEAST VIRGINIA

CITY           SKY/WX    TMP DP  RH WIND       PRES   REMARKS
NORFOLK        CLEAR     38  26  62 W3        30.14R
VIRGINIA BEACH CLEAR     33  24  69 SW5       30.14R
NORFOLK NAVAL  CLEAR     39  26  59 W7        30.16R
WEST POINT*    CLEAR    N/A N/A N/A S5        30.14R
SALUDA*        FAIR      32  28  83 S3        30.12S
NEWPORT NEWS   CLEAR     36  27  69 SW8       30.14R
LANGLEY AFB    CLEAR     35  27  74 SW6       30.14R
FORT EUSTIS    CLEAR     37  27  68 W5        30.11S
WILLIAMSBURG*  CLEAR     37  28  70 SW3       30.14S
HR EXEC AP*    FAIR      27  24  89 CALM      30.16R
FRANKLIN*      CLEAR     30  26  83 CALM      30.15S
US460-WAKEFLD  CLEAR     29  28  96 CALM      30.14R
$$

VAZ020-022-025-037-045-110100-
WEST CENTRAL AND SOUTHWEST VIRGINIA

CITY           SKY/WX    TMP DP  RH WIND       PRES   REMARKS
STAUNTON*      PTCLDY    32  19  59 S6        30.04R
WAYNESBORO*    PTCLDY    31  18  58 CALM      30.02R
HOT SPRINGS VA MOCLDY    26  12  55 W17       29.91S WCI  13
LYNCHBURG      PTCLDY    31  21  66 SW5       30.06S
DANVILLE       CLEAR     30  24  78 SW3       30.12S
SOUTH BOSTON*  FAIR      32  24  73 CALM      30.12S
MARTINSVILLE   PTCLDY    30  23  75 CALM      30.12S
ROANOKE        CLEAR     36  18  48 SW8       30.07S
BLACKSBURG     PTCLDY    32  19  59 W5        30.06S
DUBLIN*        CLEAR     32  20  61 SW15      30.06R WCI  22
MARION*        CLOUDY    31  17  56 W13       30.06S WCI  21
HILLSVILLE*    CLOUDY    30  12  47 SW9       30.02R
RICHLANDS*     FAIR      31  15  51 SW8       30.03S
WISE*          CLEAR     32  19  59 S7        30.04R
ABINGDON*      CLEAR     32  19  59 W5        30.09R
$$

MDZ021>025-VAZ099-100-110100-
SOUTHERN MARYLAND AND THE DELMARVA PENINSULA

CITY           SKY/WX    TMP DP  RH WIND       PRES   REMARKS
PATUXENT RIVER CLEAR     35  28  75 SW6       30.09R
BAY BRIDGE APT CLEAR     37  23  56 SW8       30.07R
LEONARDTOWN    CLEAR     34  30  86 SW5       30.10S
DOVER          PTCLDY    31  27  84 S6        30.07R
GEORGETOWN     CLEAR     30  24  78 SW5       30.10R
EASTON         CLEAR     32  25  74 S3        30.11R
CAMBRIDGE      CLEAR     34  28  80 CALM      30.09R
SALISBURY      CLEAR     30  27  88 SW5       30.10R
OCEAN CITY     CLEAR     32  27  81 SW6       30.11R
WALLOPS ISLAND CLEAR     31  27  85 SW5       30.12R
ACCOMACK*      CLEAR     33  28  80 SW6       30.12S
$$

NCZ012>017-030>032-110100-
NORTH CENTRAL AND EASTERN NORTH CAROLINA

CITY           SKY/WX    TMP DP  RH WIND       PRES   REMARKS
ROANOKE RAPIDS FAIR      32  30  93 CALM      30.16R
RALEIGH        PTCLDY    32  27  81 CALM      30.14S
ELIZABETH CITY CLEAR     36  30  79 SW5       30.17R
AHOSKIE*       CLEAR     31  28  90 CALM      30.17R
EDENTON*       CLEAR     42  29  61 W5        30.17R
CURRITUCK*     CLEAR     34  30  86 CALM      30.16R
KILL DEVIL HLS CLEAR     39  25  57 CALM      30.14S
MANTEO         CLEAR     40  28  61 W7        30.17R
CAPE HATTERAS  CLEAR     40  30  67 W7        30.18R
TARBORO*       NOT AVBL
GOLDSBORO      CLEAR     33  27  79 CALM      30.16R
WASHINGTON     CLEAR     35  28  78 CALM      30.18R
GREENVILLE     CLEAR     32  28  86 CALM      30.18S
NEW BERN       CLEAR     32  30  92 CALM      30.20R
WILMINGTON     CLEAR     36  31  82 CALM      30.21R
$$

VAZ048-110100-
ELSEWHERE

CITY           SKY/WX    TMP DP  RH WIND       PRES   REMARKS
HARRISBURG PA  CLOUDY    35  22  58 SW7       30.00R
BALTIMORE      PTCLDY    35  22  58 SW5       30.05R
ANNAPOLIS      CLEAR     37  25  61 CALM      30.07R
ANDREWS AFB    PTCLDY    32  24  72 S5        30.05R
PHILADELPHIA   PTCLDY    36  22  56 SW12      30.04S
HENDERSON NC   CLEAR     28  25  89 CALM      30.12S
GREENSBORO     CLEAR     33  23  66 SW8       30.11R
ROCKY MOUNT    CLEAR     30  29  96 CALM      30.16R
$$

VAZ100-110100-
MARINE

STATION/POSITION TIME  TEMP    WIND        PRES    WAVE   SWELL
                       AIR SEA DIR/SP/G            HT/PER HT/PER
                 (UTC) (F)     (DEG/KT/KT) (MB)    (FT/S) (FT/S)
BRANDYWINE LGT   2342   38     240/ 15/ 17 1018.9R
CAPE MAY NJ      2342   38 43  270/ 14/ 18 1018.1R
LEWES DE         2342   33 45  210/  3/  4 1018.9R
15NM E FENWICK I 2350   40 54  250/ 16/ 19 1019.4R   4/ 9   2/ 9
OCEAN-CITY-INLET 2342   36 48  270/  6/  8 1019.7R
WACHAPREAGUE VA  2342   34 44  260/  2/  2 1020.1R
THOMAS POINT MD  0000   40 47  220/ 11/ 12   N/A
GOOSES REEF MD   0000   40 48  210/ 14/ 16 1019.0    1/ 2
COVE POINT MD    2342   37     210/  9/ 11 1019.5R
SOLOMONS ISLAND  2342   37 49  210/  8/  9 1018.7R
BISHOPS HEAD MD  2342   40 40  230/ 16/ 18 1019.2R
PINEY POINT MD   2336          230/  8/ 11   N/A
POTOMAC MD       0000   39 49  210/ 12/ 16 1018.6    1/ 2
CAMBRIDGE MD     2342   34 45              1019.4R
LEWISETTA VA     2342   36 44  230/  8/  9 1019.3R
RAPPAHANNOCK LGT 2336          250/ 16/ 19 1020.6R
STINGRAY PT      0000   39 48  260/ 14/ 16 1020.2    1/ 2
YORK RVR RNG VA  2342   39     260/ 12/ 15 1020.9R
YORKTOWN VA      2336   38 51  240/  6/  8 1020.2R
JAMESTOWN VA     0000      50  230/  8/ 12   N/A     1
DOMINION TERM VA 2336   39     290/ 10/ 12 1020.9R
KIPTOPEKE VA     2336      49  280/ 14/ 18   N/A
CAPE HENRY VA    2336   38     240/  6/  8   N/A
WILLOUBY STN VA  2336   39     270/ 14/ 16 1020.3R
S CRANEY ISL VA  2336   37     260/  3/  5 1020.6R
CAPE HENRY BUOY  0000      56                N/A     3/ 9
1ST LANDING BUOY 0000   41 51  280/ 14/ 17 1020.6    1/ 3
CAPE CHARLES BUO 2351      55                N/A     3/10
64NM E OF VA BCH 2350   45 60  250/ 12/ 17 1020.8R   5/ 8   3/ 8
DUCK PIER NC     2336   42 53  280/ 10/ 12 1020.5R
44100 DUCK FRF   2315      57                N/A     3/ 9   2/11
44056 DUCK FRF   0000      54                N/A     2/ 9
OREGON INLET NC  2336   42 49  260/  9/ 13 1021.3R
HATTERAS NC      2336   42 53  260/  8/ 10 1021.4R
DIAMOND SHLS NC  2350   46 69  280/ 10/ 16 1022.0R   5/ 8   5/ 8
CAPE LOOKOUT NC  0000          280/  8/  9 1022.6R
$$




USA.gov is the U.S. government's official web portal to all federal, state and local government web resources and services.